www.pogodaiklimat.ru

Погода и климат >> Архив погоды >> Бразилия >> округ Бразилиа >> Агуас Эмендадас


ПОГОДА в Агуас Эмендадас

  • Прогноз погоды в Агуас Эмендадас
  • Монитор погоды в Агуас Эмендадас

АРХИВ ПОГОДЫ в Агуас Эмендадас

Время (UTC), дата Ветер
(напр.,м/с)
 
Видим.   Явления Облачность Т
(С)
Тd
(С)
f
(%)
Тe
(С)
Тes
(С)
Комфортность P
(гПа)
Po
(гПа)
Тmin
(С)
Tmax
(С)
R
(мм)
R24
(мм)
S
(см)
22 17.08 В 1
{2}
н/о н/о +18.6 +9.6 56 +20 +20 1017.7 902.0
23 17.08 В 1
{2}
н/о н/о +18.3 +9.8 58 +20 +20 1018.3 902.4
00 18.08 В 1
{2}
н/о н/о +17.5 +9.7 60 +19 +19 1019.3 903.0
01 18.08 В 2
{3}
н/о н/о +18.0 +9.3 57 +19 +19 1019.4 903.3
02 18.08 В 2
{3}
н/о н/о +19.1 +9.2 53 +21 +21 комфорт 1019.1 903.4
03 18.08 В 1
{3}
н/о н/о +18.8 +9.3 54 +20 +20 1019.1 903.3
04 18.08 СВ 1
{3}
н/о н/о +17.8 +10.0 60 +19 +19 1019.3 903.1
05 18.08 З 1
{1}
н/о н/о +16.9 +10.4 66 +18 +18 1019.5 902.9
06 18.08 ЮВ 1
{2}
н/о н/о +17.2 +10.3 64 +19 +19 1019.0 902.6
07 18.08 СВ 1
{2}
н/о н/о +16.0 +10.3 69 +17 +17 1019.3 902.4
08 18.08 ЮВ 1
{2}
н/о н/о +14.8 +10.0 73 +16 +16 1019.9 902.5
09 18.08 В 1
{1}
н/о н/о +12.6 +9.6 82 +13 +13 1021.4 903.0
10 18.08 СВ 1
{2}
н/о н/о +16.5 +10.1 66 +18 +18 1020.3 903.5
11 18.08 В 1
{2}
н/о н/о +20.0 +10.5 54 +23 +23 комфорт 1019.6 904.2
12 18.08 В 1
{3}
н/о н/о +22.4 +11.1 49 +25 +25 комфорт 1019.5 905.0
13 18.08 С 1
{3}
н/о н/о +25.3 +10.5 39 +26 +26 жарко 1018.2 904.9
14 18.08 ЮВ 1
{3}
н/о н/о +26.1 +8.6 33 +26 +26 жарко 1017.6 904.6
15 18.08 ЮВ 2
{3}
н/о н/о +27.5 +8.7 31 +28 +28 жарко 1016.1 903.8
16 18.08 В 1
{3}
н/о н/о +28.6 +8.0 27 +28 +28 жарко 1014.9 903.1
17 18.08 ЮВ 1
{3}
н/о н/о +27.3 +8.3 30 +27 +27 жарко 1014.6 902.4
18 18.08 ЮЗ 2
{3}
н/о н/о +29.0 +6.0 23 +28 +28 жарко 1012.7 901.3
19 18.08 ЮВ 2
{4}
н/о н/о +29.1 +6.1 23 +28 +28 жарко 1012.5 901.1
20 18.08 ЮВ 1
{3}
н/о н/о +28.0 +6.1 25 +27 +27 жарко 1013.0 901.2
21 18.08 В 1
{3}
н/о н/о +24.3 +8.1 36 +25 +25 комфорт 1015.0 901.7
22 18.08 С 1
{1}
н/о н/о +21.6 +9.4 46 +23 +23 комфорт 1016.5 902.0
23 18.08 В 1
{2}
н/о н/о +21.3 +9.6 47 +23 +23 комфорт 1016.9 902.3
00 19.08
{1}
н/о н/о +20.1 +9.6 51 1017.9 902.7
01 19.08 С 1
{1}
н/о н/о +18.7 +10.1 57 +21 +21 комфорт 1018.8 903.0
02 19.08 С 1
{2}
н/о н/о +18.0 +10.5 62 +20 +20 1019.3 903.2
03 19.08 В 1
{2}
н/о н/о +17.6 +10.3 62 +19 +19 1019.5 903.2
04 19.08 С 1
{1}
н/о н/о +16.6 +10.9 69 +18 +18 1019.5 902.8
05 19.08 СВ 1
{2}
н/о н/о +17.6 +10.6 64 +19 +19 1018.6 902.4
06 19.08 Ю 1
{2}
н/о н/о +19.7 +9.9 53 +22 +22 комфорт 1017.3 902.0
07 19.08 СВ 1
{3}
н/о н/о +20.0 +9.2 50 +22 +22 комфорт 1016.8 901.7
08 19.08 ЮЗ 1
{2}
н/о н/о +18.1 +10.7 62 +19 +19 1017.8 901.9
09 19.08 В 1
{2}
н/о н/о +17.2 +11.6 70 +19 +19 1018.8 902.4
10 19.08 СВ 1
{1}
н/о н/о +16.4 +11.6 73 +17 +17 1019.2 902.5
11 19.08 В 1
{1}
н/о н/о +21.2 +10.9 52 +23 +23 комфорт 1018.1 903.3
12 19.08 ЮВ 1
{1}
н/о н/о +24.9 +9.2 37 +26 +26 жарко 1017.2 903.8
13 19.08 С 1
{2}
н/о н/о +27.1 +7.5 29 +27 +27 жарко 1016.4 903.9
14 19.08 В 1
{3}
н/о н/о +28.5 +5.8 24 +27 +27 жарко 1015.5 903.6
15 19.08 СВ 1
{3}
н/о н/о +28.3 +5.2 23 +27 +27 жарко 1014.8 902.9
16 19.08 ЮЗ 1
{3}
н/о н/о +29.5 +4.5 20 +28 +28 жарко 1013.3 902.0
17 19.08 В 1
{4}
н/о н/о +30.1 +4.3 19 +28 +28 жарко 1012.1 901.1
18 19.08 ЮВ 2
{4}
н/о н/о +29.7 +4.9 21 +28 +28 жарко 1011.4 900.4
19 19.08 ЮВ 2
{4}
н/о н/о +30.9 +5.1 20 +29 +29 жарко 1010.7 900.2
20 19.08 В 1
{3}
н/о н/о +27.9 +6.1 25 +27 +27 жарко 1012.3 900.5
21 19.08 ЮВ 1
{2}
н/о н/о +24.7 +7.7 34 +25 +25 комфорт 1013.8 900.7
22 19.08 В 1
{2}
н/о н/о +21.0 +7.5 42 +23 +23 комфорт 1015.7 901.1
23 19.08 В 1
{2}
н/о н/о +20.1 +6.7 42 +22 +22 комфорт 1016.5 901.5
00 20.08 В 2
{3}
н/о н/о +21.9 +5.4 34 +22 +22 комфорт 1016.4 902.0
01 20.08 В 2
{3}
н/о н/о +21.0 +6.0 38 +23 +23 комфорт 1017.0 902.2
02 20.08 В 1
{3}
н/о н/о +20.6 +6.6 40 +23 +23 комфорт 1017.3 902.4
03 20.08 В 1
{2}
н/о н/о +17.4 +7.3 51 +19 +19 1018.5 902.2
04 20.08 С 1
{1}
н/о н/о +16.0 +8.1 59 +17 +17 1018.6 901.8
05 20.08 С 1
{1}
н/о н/о +15.2 +8.9 66 +17 +17 1018.8 901.7
06 20.08 З 1
{2}
н/о н/о +15.2 +9.4 68 +17 +17 1018.7 901.6
07 20.08 ЮЗ 1
{2}
н/о н/о +15.5 +10.0 70 +17 +17 1018.8 901.8
08 20.08 В 1
{1}
н/о н/о +15.5 +10.0 70 +17 +17 1019.0 902.0
09 20.08 СВ 1
{2}
н/о н/о +16.5 +9.8 65 +18 +18 1019.3 902.6
10 20.08 СВ 1
{2}
н/о н/о +16.9 +9.3 61 +18 +18 1019.7 903.1
11 20.08 СВ 1
{2}
н/о н/о +20.7 +8.9 47 +24 +24 комфорт 1018.8 903.7
12 20.08 СВ 2
{4}
н/о н/о +25.2 +5.8 29 +25 +25 комфорт 1017.0 903.8
13 20.08 С 2
{4}
н/о н/о +27.2 +4.8 24 +26 +26 жарко 1016.9 904.4
14 20.08 С 2
{4}
н/о н/о +27.7 +4.9 23 +26 +26 жарко 1016.7 904.4
15 20.08 С 2
{4}
н/о н/о +29.3 +4.7 21 +28 +28 жарко 1015.3 903.7
16 20.08 С 2
{4}
н/о н/о +28.6 +3.7 20 +27 +27 жарко 1014.8 903.0
17 20.08 СВ 1
{4}
н/о н/о +30.6 +4.3 19 +29 +29 жарко 1013.2 902.3
18 20.08 СВ 1
{3}
н/о н/о +30.0 +3.3 18 +28 +28 жарко 1013.0 901.9
19 20.08 В 1
{2}
н/о н/о +31.0 +4.7 19 +29 +29 жарко 1012.5 901.8
20 20.08 В 1
{3}
н/о н/о +28.8 +5.7 23 +28 +28 жарко 1013.6 902.0
21 20.08 СВ 1
{2}
н/о н/о +23.5 +8.9 39 +24 +24 комфорт 1016.3 902.5
00 21.08 СВ 1
{2}
н/о н/о +17.2 +8.3 56 +18 +18 1020.5 903.9
01 21.08 СВ 1
{2}
н/о н/о +18.8 +6.6 45 +20 +20 1019.8 903.9
02 21.08 СВ 1
{2}
н/о н/о +17.7 +7.0 49 +19 +19 1020.0 903.7
03 21.08 СВ 1
{2}
н/о н/о +17.5 +7.6 52 +19 +19 1019.7 903.3
04 21.08 ЮВ 1
{2}
н/о н/о +15.1 +8.8 66 +16 +16 1020.2 902.9
05 21.08 Ю 1
{2}
н/о н/о +14.9 +8.8 67 +15 +15 1019.9 902.5
06 21.08 ЮЗ 1
{2}
н/о н/о +14.2 +8.3 68 +15 +15 1019.9 902.3
07 21.08 штиль 0
{2}
н/о н/о +13.3 +9.0 75 +13 +13 1020.1 902.1
08 21.08 ЮЗ 1
{1}
н/о н/о +14.3 +8.8 69 +15 +15 1020.0 902.4
09 21.08 ЮЗ 1
{2}
н/о н/о +13.8 +8.9 72 +14 +14 1021.0 903.1
10 21.08 ЮЗ 1
{2}
н/о н/о +14.9 +9.3 69 +15 +15 1021.6 904.0
11 21.08 СВ 1
{2}
н/о н/о +21.4 +9.8 48 +23 +23 комфорт 1019.4 904.5
12 21.08 В 1
{3}
н/о н/о +25.2 +8.1 34 +26 +26 жарко 1018.5 905.1
13 21.08 СВ 2
{3}
н/о н/о +26.4 +6.1 27 +26 +26 жарко 1018.1 905.2
14 21.08 СВ 2
{3}
н/о н/о +28.4 +5.9 24 +27 +27 жарко 1017.0 904.9
15 21.08 В 1
{3}
н/о н/о +29.8 +6.8 24 +29 +29 жарко 1015.7 904.2
16 21.08 ЮВ 1
{5}
н/о н/о +30.1 +5.7 21 +28 +28 жарко 1014.8 903.5
17 21.08 В 2
{4}
н/о н/о +30.8 +5.9 21 +29 +29 жарко 1013.4 902.5
18 21.08 С 1
{3}
н/о н/о +29.4 +5.8 22 +28 +28 жарко 1013.2 901.9
19 21.08 В 1
{5}
н/о н/о +28.7 +6.3 24 +28 +28 жарко 1013.3 901.7
20 21.08 Ю 1
{3}
н/о н/о +28.8 +6.8 25 +28 +28 жарко 1013.5 901.9
21 21.08 В 1
{3}
н/о н/о +25.3 +7.7 33 +25 +25 комфорт 1015.1 902.1
22 21.08 ЮВ 1
{2}
н/о н/о +21.6 +8.8 44 +23 +23 комфорт 1016.9 902.4
23 21.08 В 1
{2}
н/о н/о +21.3 +9.0 45 +23 +23 комфорт 1017.6 902.9
00 22.08 В 1
{3}
н/о н/о +21.7 +8.4 42 +23 +23 комфорт 1018.0 903.4
01 22.08 В 2
{3}
н/о н/о +22.2 +8.4 41 +23 +23 комфорт 1017.9 903.5
02 22.08 В 1
{3}
н/о н/о +21.0 +8.8 46 +24 +24 комфорт 1018.4 903.5
03 22.08 В 1
{3}
н/о н/о +20.0 +9.0 49 +22 +22 комфорт 1018.5 903.2
04 22.08 В 1
{2}
н/о н/о +17.9 +9.7 59 +19 +19 1018.9 902.8
05 22.08 ЮЗ 1
{2}
н/о н/о +15.6 +9.5 67 +17 +17 1019.5 902.4
06 22.08 СВ 1
{1}
н/о н/о +15.2 +9.4 68 +17 +17 1019.2 902.0
07 22.08
{1}
н/о н/о +13.8 +9.8 77 1019.8 902.0
08 22.08 В 1
{1}
н/о н/о +13.0 +9.4 79 +14 +14 1020.4 902.2
09 22.08 ЮВ 1
{1}
н/о н/о +11.8 +8.8 82 +13 +13 1021.5 902.7
10 22.08 Ю 2
{4}
н/о н/о +14.8 +10.5 75 +14 +14 1021.0 903.5
11 22.08 ЮВ 1
{4}
н/о н/о +22.2 +9.9 46 +24 +24 комфорт 1018.9 904.4
12 22.08 В 2
{3}
н/о н/о +25.0 +8.9 36 +26 +26 жарко 1018.5 905.0
13 22.08 В 2
{4}
н/о н/о +26.6 +9.4 34 +27 +27 жарко 1018.1 905.2
14 22.08 В 2
{4}
н/о н/о +28.2 +8.7 29 +28 +28 жарко 1017.0 904.8
15 22.08 СВ 2
{4}
н/о н/о +28.9 +7.8 27 +28 +28 жарко 1015.7 903.9
16 22.08 С 1
{3}
н/о н/о +29.6 +6.5 23 +28 +28 жарко 1014.6 903.2
17 22.08 ЮВ 2
{3}
н/о н/о +31.0 +6.4 21 +29 +29 жарко 1013.1 902.3
18 22.08 ЮВ 1
{3}
н/о н/о +29.6 +7.2 24 +28 +28 жарко 1013.0 901.8
19 22.08 В 1
{3}
н/о н/о +28.9 +7.9 27 +28 +28 жарко 1013.4 901.9
20 22.08 ЮВ 2
{3}
н/о н/о +29.1 +7.1 25 +28 +28 жарко 1013.5 902.0
21 22.08 ЮВ 1
{3}
н/о н/о +25.7 +8.9 35 +26 +26 жарко 1015.5 902.6
22 22.08 ЮВ 1
{2}
н/о н/о +22.3 +9.6 44 +24 +24 комфорт 1017.1 902.8
23 22.08 В 1
{2}
н/о н/о +21.1 +9.8 48 +22 +22 комфорт 1018.4 903.5
00 23.08 ЮВ 2
{2}
н/о н/о +22.3 +9.6 44 +24 +24 комфорт 1018.4 904.0
01 23.08 ЮВ 2
{3}
н/о н/о +23.4 +9.6 42 +25 +25 комфорт 1018.2 904.2
02 23.08 ЮВ 2
{3}
н/о н/о +22.7 +9.7 44 +24 +24 комфорт 1018.5 904.2
03 23.08 ЮВ 2
{3}
н/о н/о +22.6 +9.9 44 +24 +24 комфорт 1018.2 903.9
04 23.08 В 1
{3}
н/о н/о +21.4 +9.9 48 +23 +23 комфорт 1018.1 903.4
06 23.08 Ю 1
{2}
н/о н/о +17.7 +10.5 63 +19 +19 1018.9 902.7
07 23.08 СВ 1
{2}
н/о н/о +18.7 +10.5 59 +20 +20 1018.5 902.7
08 23.08 СВ 1
{3}
н/о н/о +19.0 +11.1 60 +21 +21 комфорт 1018.7 903.0
09 23.08 С 1
{2}
н/о н/о +17.8 +11.6 67 +19 +19 1019.9 903.6
10 23.08 Ю 1
{3}
н/о н/о +18.2 +11.6 65 +20 +20 1020.8 904.6
11 23.08 ЮВ 1
{2}
н/о н/о +21.9 +12.2 54 +24 +24 комфорт 1019.6 904.9
12 23.08 СВ 2
{3}
н/о н/о +23.7 +12.0 48 +25 +25 комфорт 1019.1 905.1
13 23.08 СВ 2
{4}
н/о н/о +25.9 +11.4 40 +27 +27 жарко 1018.3 905.2
14 23.08 СВ 2
{3}
н/о н/о +27.4 +9.6 33 +28 +28 жарко 1016.9 904.5
15 23.08 ЮВ 2
{4}
н/о н/о +27.5 +8.8 31 +28 +28 жарко 1016.1 903.8
16 23.08 ЮЗ 1
{3}
н/о н/о +30.7 +7.9 24 +30 +30 жарко 1013.6 902.7
17 23.08 В 2
{3}
н/о н/о +30.0 +9.1 27 +29 +29 жарко 1013.0 901.9
18 23.08 ЮВ 1
{3}
н/о н/о +28.8 +8.9 29 +29 +29 жарко 1013.0 901.5
19 23.08 ЮЗ 1
{3}
н/о н/о +29.8 +7.1 24 +29 +29 жарко 1012.3 901.2
20 23.08 З 1
{3}
н/о н/о +29.5 +6.5 23 +28 +28 жарко 1012.5 901.3
21 23.08 ЮВ 1
{2}
н/о н/о +24.6 +11.1 43 +26 +26 жарко 1014.7 901.5
22 23.08 В 1
{2}
н/о н/о +20.6 +12.4 59 +24 +24 комфорт 1016.7 901.8
23 23.08 В 1
{1}
н/о н/о +18.6 +12.0 65 +21 +21 комфорт 1017.8 902.1
00 24.08 СВ 1
{1}
н/о н/о +16.8 +11.6 71 +18 +18 1019.2 902.6
01 24.08 ЮВ 1
{4}
н/о н/о +15.9 +11.6 76 +17 +17 1020.0 903.0
02 24.08 Ю 1
{4}
н/о н/о +17.2 +10.4 64 +18 +18 1019.9 903.4
03 24.08 Ю 1
{2}
н/о н/о +17.7 +9.5 59 +19 +19 1019.6 903.3
04 24.08 Ю 1
{2}
н/о н/о +17.2 +9.2 59 +18 +18 1019.4 903.0
05 24.08 Ю 2
{3}
н/о н/о +18.9 +8.2 50 +20 +20 1018.3 902.6
06 24.08 Ю 2
{4}
н/о н/о +17.3 +8.3 55 +18 +18 1019.0 902.6
07 24.08 Ю 2
{3}
н/о н/о +15.9 +8.7 62 +16 +16 1019.6 902.6
08 24.08 Ю 1
{3}
н/о н/о +16.2 +9.1 63 +17 +17 1019.8 902.9
09 24.08 Ю 2
{3}
н/о н/о +15.0 +9.2 68 +15 +15 1021.1 903.6
10 24.08 Ю 2
{3}
н/о н/о +15.9 +9.6 66 +16 +16 1021.0 903.9
11 24.08 В 1
{4}
н/о н/о +20.4 +11.3 56 +23 +23 комфорт 1020.0 904.7
12 24.08 ЮВ 3
{5}
н/о н/о +22.9 +10.2 45 +25 +25 комфорт 1019.5 905.2
13 24.08 ЮВ 3
{5}
н/о н/о +24.5 +10.0 40 +25 +25 комфорт 1018.9 905.2
14 24.08 ЮВ 2
{4}
н/о н/о +27.2 +9.2 32 +27 +27 жарко 1017.3 904.7
15 24.08 ЮВ 2
{4}
н/о н/о +28.6 +8.8 29 +28 +28 жарко 1015.9 904.0
16 24.08 В 2
{3}
н/о н/о +29.9 +8.1 26 +29 +29 жарко 1014.4 903.1
17 24.08 Ю 1
{4}
н/о н/о +30.4 +7.3 24 +29 +29 жарко 1013.2 902.2
18 24.08 ЮЗ 2
{4}
н/о н/о +30.5 +6.1 22 +29 +29 жарко 1012.6 901.7
19 24.08 Ю 1
{4}
н/о н/о +29.8 +5.3 21 +28 +28 жарко 1012.7 901.6
20 24.08 Ю 1
{3}
н/о н/о +28.7 +5.8 23 +27 +27 жарко 1013.4 901.8
21 24.08 ЮВ 1
{3}
н/о н/о +24.8 +7.8 34 +25 +25 комфорт 1015.4 902.2
22 24.08 В 1
{2}
н/о н/о +21.2 +8.8 45 +22 +22 комфорт 1017.4 902.7

 

Местоположение метеостанции Агуас Эмендадас (округ Бразилиа, Бразилия): широта -15.60 долгота -47.63 высота над уровнем моря 1202 м.

В архиве по умолчанию представлена погода в Агуас Эмендадас за последнюю неделю. Архивные данные за месяц целиком и за предыдущие месяцы, начиная с января 2011 года, Вы можете получить, выбрав интересующий диапазон дат из раскрывающегося списка и нажав кнопку "Ввод!".


*Определитесь, кто Вы:
робот инопланетянин человек

Внимание! Время в таблицах - всемирное. Для получения местного времени необходимо прибавить поправку, которая равна -3 ч.

Смотрите также архив погоды в соседних городах и на ближайших метеорологических станциях:

Погода в Бразилиа (округ Бразилиа, Бразилия) (38 км)
Погода в Бразилиа (округ Бразилиа, Бразилия) (43 км)
Погода в Лузиании (Гояс, Бразилия) (83 км)
Погода в Буритисе (Минас-Жерайс, Бразилия) (129 км)
Погода в Кристалине (Гояс, Бразилия) (131 км)
Погода в Унаи (Минас-Жерайс, Бразилия) (133 км)
Погода в Гоянезии (Гояс, Бразилия) (151 км)
Погода в Никеландии (Гояс, Бразилия) (153 км)
Погода в Силвании (Гояс, Бразилия) (160 км)
Погода в Альто-Параисо-де-Гоя (Гояс, Бразилия) (164 км)

Пояснения к столбцам:

Ветер - указаны скорость ветра в м/с - средняя за 10 мин, порывы в срок и между сроками (в фигурных скобках) и направление, откуда дует ветер: С - северный, СВ - северо-восточный, В - восточный, ЮВ - юго-восточный, Ю - южный, ЮЗ - юго-западный, З - западный, СЗ - северо-западный.
Видимость - горизонтальная дальность видимости в метрах или километрах. При видимости от 1 до 10 км при отсутствии осадков обычно наблюдается дымка, при ухудшении видимости до 1 км и менее - туман. В сухую погоду видимость может ухудшаться дымом, пылью или мглою.
Явления - указаны атмосферные явления, наблюдавшиеся в срок или в последний час перед сроком; фигурными скобками обозначены явления, наблюдавшиеся между сроками (за 1-3 часа до срока); квадратными скобками обозначены град или гололедные отложения с указанием их диаметра в мм.
Облачность - указаны через наклонную черту общая и нижняя облачность в баллах и высота нижней границы облаков в метрах; квадратными скобками обозначены формы облаков: Ci - перистые, Cs - перисто-слоистые, Cc - перисто-кучевые, Ac - высококучевые, As - высокослоистые, Sc - слоисто-кучевые, Ns - слоисто-дождевые, Cu - кучевые, Cb - кучево-дождевые. Подробнее классификацию облаков см. в Атласе облаков (PDF).
T - Температура воздуха - температура, измеренная на высоте 2 м над землей.
Td - Температура точки росы - температура, при понижении до которой содержащийся в воздухе водяной пар достигнет насыщения.
f - Относительная влажность воздуха - влажноcть воздуха, измеренная на высоте 2 м над землей.
Te - Эффективная температура - температура, которую ощущает одетый по сезону человек в тени. Характеристика душности погоды. При расчете учитывается влияние влажности воздуха и скорости ветра на теплоощущения человека.
Tes - Эффективная температура на солнце - температура, которую ощущает человек, с поправкой на солнечный нагрев. Характеристика знойности погоды. Зависит от высоты солнца над горизонтом, облачности и скорости ветра. Ночью, в пасмурную погоду, а также при ветре 12 м/с и более поправка равна нулю.
P - Атмосферное давление - приведенное к уровню моря атмосферное давление.
Po - Атмосферное давление - измеренное на уровне метеостанции атмосферное давление.
Tmin - Минимальная температура - минимум температуры воздуха на высоте 2 м над землей.
Tmax - Максимальная температура - максимум температуры воздуха на высоте 2 м над землей.
R - Количество осадков - Количество выпавших осадков за период времени, мм. При наведении курсора мыши на число - период времени, за который выпало указанное количество осадков.
R24 - Количество осадков - Количество выпавших осадков за 24 часа, мм.
S - Снежный покров - Высота снежного покрова, см. При наведении курсора мыши на число - состояние снежного покрова и степень покрытия местности в баллах.